Wind_Speed
4 3 6 7 6 4 1 1 3 11 10 4 8 11 10 5 15 17 26 28 30 33 27 29 26 28 28 30 28 28 32 27 25 25 23 20 22 21 21 20 16 18 20 20
3 6 8 4 3 3 3 5 9 10 8 4 9 8 4 6 11 30 28 34 32 31 34 34 32 31 27 23 21 25 27 27 26 23 16 14 17 19 18 15 14 17 18 19
7 7 4 4 3 3 3 4 7 7 7 4 5 6 6 5 5 11 12 27 28 36 43 36 31 28 24 20 15 15 21 25 26 25 19 17 16 16 14 16 16 17 19 20
6 8 7 4 6 6 6 8 10 6 2 2 2 4 5 4 2 2 5 15 18 25 35 35 32 26 21 17 15 16 18 21 24 25 20 19 17 18 20 16 16 17 19 19
7 2 4 6 10 7 11 6 8 7 4 3 2 3 6 4 5 6 8 12 20 29 36 32 28 23 17 14 14 15 19 18 15 13 15 14 11 10 11 13 15 17 17 18
7 4 5 7 5 7 7 3 3 4 2 2 4 5 4 6 9 5 6 17 20 24 27 26 26 22 18 15 14 11 9 10 9 8 7 7 7 8 11 13 14 17 18 20
6 5 3 3 7 2 4 5 3 4 4 5 4 3 8 3 8 14 19 27 22 21 22 25 26 23 21 20 14 11 9 9 8 7 6 6 7 8 10 12 15 18 21 22
6 8 7 4 7 8 6 8 5 6 4 6 4 5 5 6 18 16 17 20 24 23 23 24 24 23 21 18 13 13 12 10 9 8 8 6 5 7 12 16 19 18 16 17
6 6 5 5 6 8 2 4 5 5 2 2 4 3 2 6 10 16 20 24 26 26 26 25 24 23 21 16 14 13 12 11 9 6 5 5 8 12 14 15 13 14 14 13
4 6 7 9 4 3 6 5 2 3 4 4 4 3 5 4 7 8 15 24 29 29 27 26 24 21 18 16 15 13 10 7 7 7 8 10 10 9 11 10 11 12 12 13
5 5 18 2 5 8 1 1 2 4 5 6 3 6 8 12 15 19 21 25 35 35 31 29 26 21 17 16 16 15 12 11 11 10 8 7 7 9 9 10 10 11 12 10
1 4 7 13 12 5 6 8 7 4 6 3 4 7 4 13 19 22 22 31 38 38 35 32 27 23 20 18 17 16 16 14 11 7 6 7 7 7 9 9 9 8 10 9
2 2 4 11 5 3 5 7 5 3 4 7 5 6 3 10 17 25 27 31 39 39 36 33 30 27 23 20 18 16 11 10 8 7 7 7 6 6 7 7 7 9 10 11
4 4 7 7 6 5 5 7 7 7 3 4 8 7 4 8 14 21 29 37 43 41 41 36 34 29 23 19 18 13 11 11 9 8 8 6 4 4 6 6 8 9 11 13
3 6 6 7 9 10 17 7 7 9 7 7 12 9 11 15 18 33 46 33 33 38 41 41 36 32 25 22 19 14 13 12 8 8 8 6 3 3 5 7 9 12 13 14
6 4 3 7 8 6 7 15 18 8 4 6 6 7 5 9 17 21 34 37 35 38 42 41 34 30 26 23 19 15 14 10 8 7 7 6 5 6 7 9 12 14 11 13
3 3 2 6 4 9 7 11 16 11 5 8 7 9 5 3 16 27 32 39 42 48 45 39 36 29 26 22 17 15 12 9 7 7 7 5 5 6 8 11 13 11 11 8
5 3 2 4 3 6 8 6 8 18 11 8 4 6 12 11 24 25 35 44 38 38 40 38 30 30 25 21 18 15 10 8 8 7 6 5 6 9 12 11 11 11 8 8
19 5 3 4 4 9 16 4 2 6 11 9 10 5 9 18 16 12 27 34 44 44 39 30 27 27 24 23 19 14 10 9 8 6 5 5 9 10 10 12 8 8 10 12
15 12 8 3 5 7 5 5 14 2 10 4 7 10 16 23 7 6 36 36 37 34 31 25 27 27 24 22 17 12 9 8 6 5 5 8 6 8 9 10 9 9 12 16
1 2 12 7 6 9 6 6 4 7 13 12 22 24 27 12 8 25 41 33 33 29 25 24 27 27 22 18 13 9 8 7 5 5 4 4 6 8 10 11 10 13 16 18
7 3 5 3 5 15 9 5 10 6 7 19 24 25 29 18 19 31 37 37 31 30 28 30 28 23 18 12 11 9 7 5 3 3 4 6 7 7 9 10 11 13 16 17
7 10 7 8 7 7 14 13 17 12 11 16 27 30 33 30 31 31 33 33 31 31 33 30 26 21 15 13 10 7 6 3 2 3 5 5 7 10 9 9 12 13 15 19
6 7 5 1 18 15 28 24 16 17 18 23 30 37 38 37 36 35 35 33 31 28 29 26 20 18 16 14 10 7 4 1 1 4 4 7 9 6 9 8 12 15 18 20
10 11 6 8 14 10 22 26 21 22 20 24 29 37 39 42 41 44 40 32 19 25 25 20 18 16 16 14 10 7 2 2 3 3 5 5 8 9 5 8 14 17 21 15
8 4 8 10 7 14 13 21 22 23 25 30 38 37 39 42 45 40 36 25 35 31 24 20 18 17 16 13 10 6 2 2 2 3 5 7 5 6 9 11 13 18 14 13
Wind_Direction
177 107 212 230 205 204 252 203 279 285 274 258 256 254 287 172 182 187 206 198 211 200 181 171 186 191 196 192 198 210 206 199 201 207 210 212 224 226 233 237 250 275 284 288
10 245 226 212 203 222 279 304 286 284 270 139 299 344 31 164 214 204 203 207 206 191 170 168 177 183 182 188 195 200 200 203 204 212 216 236 243 250 238 255 275 279 290 294
188 225 124 175 257 260 257 232 276 244 322 298 337 351 353 27 27 224 221 218 212 193 174 174 182 187 192 201 202 201 199 206 210 219 241 265 257 247 251 276 279 285 287 293
222 249 233 190 233 167 273 198 246 268 286 226 51 275 315 330 17 332 198 206 197 180 178 179 186 189 192 195 202 200 200 205 216 231 259 270 260 266 279 275 281 286 291 298
231 206 188 201 229 151 239 145 224 244 213 108 335 71 281 355 294 253 240 196 189 189 188 183 187 193 190 195 197 219 214 215 233 255 271 263 260 262 274 282 287 291 296 301
225 247 167 219 250 171 260 287 77 70 106 53 247 140 265 211 208 235 247 212 192 185 192 192 194 193 191 196 215 210 209 211 221 221 226 230 241 261 274 284 292 296 304 306
339 269 250 231 304 341 117 73 320 335 346 217 206 102 230 226 227 202 201 204 199 186 183 184 191 198 208 206 203 197 175 172 179 192 211 226 245 267 284 292 301 303 303 302
202 301 200 181 185 214 194 160 160 226 219 244 260 234 253 271 254 216 177 173 188 187 191 194 195 196 202 200 174 174 171 175 179 185 206 224 264 289 293 295 294 299 305 307
167 265 272 178 190 149 249 200 207 129 355 53 232 284 286 15 62 116 138 161 176 181 183 185 189 197 193 178 170 178 172 176 183 192 220 258 271 275 285 293 300 309 314 314
265 273 237 257 159 240 168 176 16 348 155 241 283 261 236 222 171 159 160 169 181 187 186 189 190 189 177 174 176 177 177 188 206 218 230 243 261 287 297 301 312 320 324 325
153 159 264 51 184 218 288 194 58 142 143 179 219 258 218 201 187 185 187 177 182 189 193 191 186 183 183 187 185 182 191 203 217 226 235 262 296 307 305 313 319 327 337 337
323 179 255 244 248 245 208 212 160 142 263 244 177 257 216 201 191 180 173 185 192 195 194 189 187 185 190 189 192 196 200 204 213 228 261 285 300 301 307 319 332 337 351 346
302 341 353 340 345 29 212 211 178 130 92 198 192 260 348 135 153 175 181 190 195 197 192 193 193 196 192 189 197 202 203 206 220 237 256 279 291 309 329 337 345 352 340 334
206 172 180 212 237 294 248 215 188 162 148 224 219 242 235 163 164 175 188 194 195 195 194 195 195 199 192 199 195 200 209 212 219 241 263 276 296 327 344 339 338 337 321 317
174 217 193 245 253 269 247 233 193 182 207 190 253 207 231 189 182 186 192 183 183 189 193 194 196 197 195 194 194 198 210 212 229 248 262 270 264 302 328 323 315 319 315 318
326 283 293 282 284 336 282 243 237 230 175 239 248 256 219 202 182 169 181 180 182 182 193 196 199 195 196 197 197 198 201 211 233 244 251 245 266 287 297 303 317 315 317 323
257 213 1 271 335 319 292 230 228 227 192 174 210 230 144 168 179 185 183 183 183 188 193 196 200 193 196 198 198 195 196 211 226 231 232 252 278 288 301 308 314 322 320 320
238 168 183 269 2 252 250 313 210 221 217 195 166 181 180 191 198 196 189 182 183 186 192 200 195 193 196 194 188 190 197 217 225 227 244 260 293 303 304 309 316 326 318 322
208 176 233 210 198 284 293 286 318 174 248 196 195 173 154 141 138 175 189 188 190 194 196 203 193 194 190 187 188 190 207 223 223 243 244 275 300 300 307 318 316 327 322 320
185 204 195 173 195 238 303 223 230 153 291 218 164 167 151 145 152 218 189 193 194 198 202 199 189 191 187 184 188 198 222 217 232 239 279 298 295 311 322 332 329 328 320 317
358 283 207 222 233 264 231 278 9 178 248 183 194 180 166 180 205 187 186 188 198 202 195 187 187 185 182 184 193 211 211 217 228 268 285 291 306 313 316 322 323 325 322 322
230 212 224 147 183 256 187 147 181 230 170 202 197 182 174 182 154 163 178 187 188 181 178 179 174 176 177 192 208 199 201 209 237 256 285 301 310 322 316 315 323 323 328 331
241 219 244 188 216 244 220 228 228 245 215 204 190 179 176 160 156 158 160 170 173 172 169 169 170 177 182 189 190 186 183 186 244 285 308 319 314 319 327 325 324 324 331 331
317 321 235 102 251 248 260 230 232 212 207 203 195 184 180 162 157 152 153 152 155 160 165 168 174 178 174 173 170 166 168 84 306 311 322 329 335 320 313 311 324 330 333 330
264 296 281 280 286 280 256 241 219 187 191 182 180 177 172 161 155 150 144 144 161 180 176 168 173 169 169 167 164 162 127 4 313 335 349 0 336 336 350 327 327 333 335 332
213 271 252 253 278 294 255 236 225 186 180 181 173 167 164 158 153 159 167 172 172 173 165 159 165 166 164 153 154 141 100 354 347 33 34 16 34 6 332 330 338 341 347 341
Height
1513 1520 1528 1523 1522 1522 1524 1529 1532 1517 1508 1513 1507 1503 1491 1494 1497 1500 1502 1506 1506 1510 1516 1519 1518 1522 1524 1525 1529 1532 1535 1539 1542 1543 1545 1549 1549 1549 1549 1549 1549 1550 1549 1547
1516 1523 1515 1515 1517 1520 1522 1527 1527 1516 1506 1510 1503 1501 1490 1492 1492 1493 1498 1499 1501 1508 1515 1517 1519 1520 1525 1526 1529 1532 1537 1539 1542 1544 1545 1547 1548 1546 1547 1546 1546 1546 1544 1542
1519 1513 1508 1514 1517 1521 1522 1525 1523 1524 1509 1505 1504 1510 1503 1496 1495 1497 1500 1501 1504 1505 1507 1511 1517 1521 1523 1526 1530 1532 1535 1539 1541 1542 1541 1543 1544 1543 1544 1544 1543 1541 1541 1540
1513 1505 1507 1512 1517 1518 1529 1511 1514 1516 1519 1531 1509 1539 1513 1505 1502 1498 1499 1500 1504 1508 1511 1512 1515 1520 1523 1527 1530 1533 1536 1539 1540 1541 1541 1542 1542 1543 1543 1541 1541 1539 1538 1537
1510 1504 1508 1512 1510 1511 1516 1507 1510 1510 1516 1518 1517 1531 1522 1511 1508 1501 1498 1500 1503 1506 1510 1512 1516 1522 1523 1526 1529 1532 1535 1536 1538 1539 1540 1540 1540 1541 1540 1540 1539 1538 1536 1534
1502 1499 1500 1502 1500 1504 1501 1504 1510 1521 1524 1540 1520 1527 1526 1519 1504 1499 1496 1497 1500 1504 1508 1515 1519 1523 1524 1525 1527 1530 1531 1532 1534 1536 1537 1538 1540 1540 1540 1539 1537 1536 1534 1531
1505 1501 1497 1498 1501 1498 1503 1519 1544 1542 1544 1546 1518 1529 1513 1497 1492 1488 1489 1491 1495 1501 1508 1512 1517 1520 1523 1525 1528 1529 1528 1529 1532 1534 1535 1537 1539 1539 1539 1538 1535 1533 1530 1529
1519 1522 1496 1493 1497 1504 1505 1515 1542 1547 1550 1537 1521 1526 1505 1495 1486 1486 1491 1497 1501 1502 1508 1513 1516 1520 1525 1526 1525 1528 1528 1528 1530 1532 1535 1536 1537 1537 1537 1536 1534 1532 1530 1529
1518 1513 1486 1486 1486 1492 1500 1513 1501 1521 1529 1535 1524 1504 1496 1493 1488 1490 1494 1499 1505 1507 1510 1515 1519 1523 1525 1526 1527 1529 1528 1530 1532 1533 1535 1536 1537 1537 1536 1535 1533 1531 1529 1527
1496 1511 1486 1482 1485 1487 1491 1492 1511 1525 1532 1538 1528 1511 1509 1500 1496 1495 1495 1497 1503 1507 1510 1513 1517 1522 1522 1522 1523 1527 1528 1531 1534 1535 1536 1536 1537 1535 1534 1533 1531 1529 1527 1526
1491 1501 1484 1484 1491 1494 1496 1499 1504 1511 1522 1534 1539 1523 1483 1482 1484 1485 1490 1494 1498 1502 1507 1511 1514 1518 1521 1521 1523 1524 1528 1531 1535 1536 1536 1535 1534 1532 1532 1531 1529 1528 1526 1525
1490 1502 1504 1490 1476 1478 1481 1488 1495 1519 1515 1520 1520 1511 1470 1470 1472 1482 1489 1493 1495 1499 1504 1510 1515 1518 1521 1522 1525 1527 1528 1529 1532 1533 1534 1533 1531 1531 1530 1529 1528 1527 1525 1524
1490 1505 1517 1503 1484 1480 1482 1480 1483 1494 1502 1512 1517 1507 1470 1469 1476 1481 1485 1488 1492 1497 1504 1508 1513 1515 1517 1518 1522 1525 1526 1527 1530 1531 1531 1531 1529 1529 1528 1527 1527 1526 1525 1524
1489 1500 1503 1514 1499 1488 1484 1476 1477 1484 1508 1497 1497 1482 1475 1476 1475 1478 1482 1483 1487 1492 1499 1505 1509 1511 1514 1518 1518 1522 1525 1527 1528 1528 1529 1528 1528 1527 1527 1526 1525 1524 1523 1522
1491 1498 1495 1489 1486 1481 1476 1471 1472 1479 1478 1490 1472 1479 1465 1465 1466 1466 1465 1480 1488 1492 1497 1500 1503 1507 1514 1514 1517 1520 1524 1526 1526 1526 1526 1527 1526 1526 1525 1525 1524 1522 1520 1519
1495 1497 1489 1488 1478 1476 1474 1464 1462 1466 1467 1468 1467 1468 1456 1457 1465 1469 1469 1474 1482 1486 1492 1496 1500 1506 1510 1513 1516 1519 1522 1524 1525 1525 1525 1525 1525 1524 1523 1522 1521 1519 1517 1515
1502 1498 1496 1497 1480 1477 1477 1455 1455 1456 1454 1455 1466 1455 1455 1458 1457 1459 1464 1467 1471 1476 1483 1494 1496 1503 1506 1511 1516 1518 1521 1522 1522 1523 1523 1523 1522 1522 1521 1519 1517 1516 1514 1512
1495 1495 1495 1498 1484 1495 1456 1443 1440 1447 1443 1443 1443 1444 1444 1446 1448 1454 1458 1460 1470 1477 1485 1489 1495 1500 1505 1511 1515 1518 1519 1520 1520 1521 1521 1521 1520 1519 1518 1516 1514 1513 1510 1508
1485 1493 1494 1497 1497 1473 1449 1440 1442 1446 1445 1436 1436 1438 1443 1446 1454 1460 1462 1466 1468 1474 1481 1486 1493 1500 1505 1510 1513 1515 1517 1518 1518 1518 1519 1518 1518 1517 1516 1513 1511 1510 1508 1505
1469 1476 1482 1491 1489 1488 1445 1434 1431 1436 1453 1432 1432 1435 1440 1446 1458 1451 1454 1462 1469 1474 1481 1486 1493 1500 1506 1509 1511 1513 1514 1516 1516 1516 1517 1516 1516 1515 1514 1512 1509 1507 1504 1501
1476 1479 1478 1478 1483 1465 1441 1436 1436 1454 1434 1427 1428 1430 1436 1437 1432 1436 1449 1459 1468 1473 1480 1489 1495 1500 1505 1508 1510 1511 1512 1514 1515 1515 1514 1514 1514 1512 1510 1509 1506 1504 1501 1498
1475 1479 1477 1475 1478 1469 1431 1434 1443 1429 1422 1422 1425 1427 1431 1432 1436 1438 1447 1456 1464 1471 1477 1485 1492 1500 1504 1508 1510 1510 1512 1512 1513 1513 1513 1513 1512 1510 1508 1506 1504 1502 1499 1496
1469 1462 1461 1464 1454 1432 1427 1422 1422 1420 1421 1421 1421 1425 1428 1431 1437 1442 1448 1458 1467 1473 1479 1486 1487 1497 1501 1506 1510 1509 1511 1512 1513 1512 1511 1511 1510 1508 1506 1505 1503 1500 1498 1494
1459 1455 1453 1451 1429 1427 1427 1420 1418 1416 1415 1416 1417 1421 1427 1430 1437 1444 1453 1464 1475 1483 1483 1484 1491 1495 1499 1505 1507 1509 1512 1512 1512 1511 1511 1510 1509 1507 1506 1504 1502 1500 1496 1491
1469 1464 1450 1445 1431 1423 1418 1418 1413 1410 1413 1416 1420 1421 1426 1431 1440 1444 1455 1464 1477 1481 1491 1486 1492 1495 1499 1502 1506 1509 1512 1512 1512 1511 1510 1509 1508 1506 1504 1503 1501 1498 1494 1490
1454 1450 1447 1432 1426 1429 1412 1412 1413 1409 1410 1413 1416 1424 1434 1438 1441 1447 1451 1454 1468 1482 1487 1487 1494 1496 1500 1501 1507 1510 1512 1512 1512 1511 1510 1509 1508 1507 1505 1502 1500 1497 1492 1488